Wind_Speed
10 9 9 10 9 9 9 10 10 9 9 9 10 11 12 12 13 13 13 13 13 13 14 14 14 15 16 16 17 17 17 17 17 17 17 16 16 17 17 17 17 17 16
10 10 10 10 10 10 10 11 11 11 11 11 12 13 13 14 15 14 14 14 13 14 14 15 16 16 17 17 18 17 17 17 17 17 17 17 17 17 17 18 18 18 18
11 11 12 11 11 11 11 12 12 12 12 13 13 14 15 15 15 15 15 15 15 15 16 17 17 17 17 18 18 18 18 18 18 18 18 18 18 17 18 18 18 19 18
12 12 13 13 12 12 12 13 14 14 13 14 14 15 16 16 16 16 16 16 16 16 17 17 17 17 18 18 18 18 18 18 18 18 18 19 19 19 18 19 20 20 20
13 13 13 14 14 13 13 15 15 15 15 15 15 16 17 17 17 17 17 17 17 17 17 17 17 17 18 18 18 18 19 19 19 19 19 19 19 20 19 20 20 21 22
15 15 15 15 15 15 15 16 15 16 16 16 16 17 17 18 17 17 17 17 17 17 17 17 17 18 18 18 19 18 19 19 19 19 19 19 19 19 20 20 20 21 22
16 16 16 17 17 16 16 17 16 17 17 18 18 17 17 17 17 17 17 18 18 17 17 17 18 18 19 19 19 19 19 19 19 19 19 19 19 20 20 21 21 22 23
17 17 17 18 18 17 17 17 18 18 18 18 18 17 17 17 17 17 18 18 18 18 18 18 18 19 20 19 19 19 19 20 20 19 19 20 20 21 22 22 22 22 23
18 18 18 18 18 18 18 18 19 19 19 19 18 18 17 18 17 18 18 18 18 18 18 19 19 20 20 20 20 20 20 20 20 19 20 21 21 21 23 23 23 23 24
19 18 18 18 18 18 19 19 19 19 20 20 19 19 19 19 19 19 19 19 19 19 19 19 20 20 21 21 21 21 21 20 21 20 21 21 21 22 23 23 23 23 24
18 18 18 18 18 18 19 19 19 19 20 20 20 20 20 20 20 20 20 20 20 20 20 20 21 21 21 21 21 22 21 22 21 21 21 22 22 23 23 22 22 22 22
18 18 18 18 18 18 19 19 19 20 21 21 21 21 20 21 21 20 20 20 20 21 21 21 21 22 22 22 22 22 22 22 22 22 22 22 22 23 23 22 22 22 22
19 19 19 19 19 19 20 20 20 21 22 22 21 21 21 21 21 21 21 21 21 22 22 22 22 22 22 22 22 22 22 22 22 22 22 23 23 22 22 22 22 22 22
20 20 20 20 21 21 21 21 21 22 22 23 22 22 22 22 22 22 22 23 23 23 23 23 23 23 22 22 21 22 23 23 22 22 23 23 23 23 22 22 22 22 22
20 20 20 21 21 22 22 22 22 22 22 23 22 22 22 22 22 23 23 23 23 23 24 24 23 23 23 23 22 23 23 24 24 24 24 24 23 23 22 22 22 22 21
21 20 21 22 23 23 22 22 23 23 23 23 22 22 22 22 23 23 23 24 23 23 24 24 24 24 24 24 23 24 24 24 24 24 25 25 25 23 23 23 23 23 22
21 21 22 24 24 23 23 23 23 23 23 23 22 22 22 22 23 23 23 24 24 24 24 24 25 25 25 24 24 24 25 26 26 25 25 24 25 24 24 23 23 22 21
21 22 23 23 24 24 24 23 23 23 23 23 23 22 22 23 23 23 23 24 25 24 24 24 25 25 25 26 26 26 26 27 26 26 25 25 24 24 24 22 21 21 20
23 23 23 23 23 23 23 23 22 23 23 24 23 23 24 24 24 24 25 25 26 26 26 25 26 26 27 27 26 26 26 25 26 26 25 25 24 23 23 22 22 21 21
23 23 24 24 23 23 23 23 23 24 24 24 24 24 24 25 25 25 26 26 27 27 27 27 27 27 27 27 27 26 26 25 25 25 24 24 23 23 23 23 22 22 21
22 22 23 23 23 23 23 24 24 24 25 25 25 26 26 25 26 26 26 27 27 27 27 27 27 27 26 26 26 26 25 24 24 24 23 23 23 23 23 23 23 22 21
23 23 23 23 23 24 24 24 25 25 26 26 26 27 27 27 26 27 27 27 27 27 27 26 26 26 25 25 25 24 25 24 24 24 24 24 25 24 24 24 23 23 22
24 23 24 24 23 24 24 24 25 26 26 26 27 27 27 27 27 28 28 28 28 27 26 26 26 26 26 25 25 25 25 25 25 25 25 25 25 25 25 25 25 25 24
23 24 24 24 24 25 25 25 26 26 26 26 27 27 27 27 27 28 28 27 27 27 26 26 26 26 26 26 27 26 26 26 26 26 26 26 26 26 27 26 26 25 25
25 25 24 25 25 25 25 26 27 27 27 27 27 27 27 27 27 28 27 27 27 27 27 27 27 27 27 27 27 27 27 27 27 27 27 27 27 27 26 26 26 26 26
25 25 25 25 25 26 26 27 27 28 27 26 27 27 27 27 27 27 27 27 27 27 28 28 27 27 28 28 27 27 27 27 27 27 27 27 27 26 26 26 27 27 27
Wind_Direction
266 269 274 275 277 277 277 276 277 278 282 287 288 288 290 294 295 294 291 289 289 290 289 288 289 289 292 295 296 297 298 295 294 293 292 289 285 284 282 282 279 279 279
261 264 270 272 274 274 274 275 277 281 284 286 288 290 292 294 293 291 288 287 288 291 292 290 289 289 291 292 294 297 297 294 292 292 293 290 287 285 284 283 281 281 283
261 265 268 272 273 275 275 278 281 282 285 286 288 289 291 292 293 291 286 286 287 290 292 293 292 290 290 291 293 294 293 292 291 291 291 289 286 285 285 284 283 281 284
263 265 268 270 272 271 272 275 278 281 283 287 287 288 290 292 292 290 288 287 288 290 292 292 292 291 289 290 292 293 293 291 292 292 290 288 286 284 283 284 284 283 284
262 266 269 270 271 272 272 274 276 279 283 287 288 288 288 290 291 290 288 288 289 291 292 291 292 291 291 291 292 292 291 290 290 291 291 289 288 286 282 281 282 283 283
262 264 267 269 270 272 274 275 274 279 283 287 288 288 287 288 290 289 288 289 290 291 291 291 291 291 293 292 291 292 291 291 290 291 290 289 289 285 283 282 281 282 283
261 263 266 268 270 271 274 276 277 279 281 284 285 285 286 288 290 289 288 289 290 290 289 289 290 291 293 293 292 292 291 291 291 290 289 288 288 286 285 285 284 284 284
263 266 266 266 268 271 274 275 278 280 281 283 282 282 284 288 290 290 289 289 290 290 288 288 290 292 293 293 293 294 291 291 290 288 288 288 290 290 287 286 286 287 287
265 267 266 264 266 270 273 274 278 281 281 282 281 280 283 286 289 289 286 287 289 291 292 292 293 293 292 292 292 293 292 290 291 290 288 289 290 290 289 288 287 287 287
266 267 268 267 269 272 274 275 277 279 280 281 282 280 282 284 286 288 287 286 290 292 293 293 294 294 294 294 293 292 291 289 289 290 290 290 290 291 291 291 289 287 288
268 267 268 269 270 273 274 275 278 279 280 281 280 279 280 282 284 286 287 288 289 290 291 293 295 294 295 296 296 293 291 290 290 291 291 291 291 291 291 290 289 290 289
268 268 268 269 271 273 273 275 277 278 279 281 281 279 281 282 282 283 286 287 288 290 292 293 294 294 294 295 295 295 292 290 291 291 292 292 291 290 290 289 290 290 289
271 272 272 270 270 272 274 276 275 277 279 280 279 279 281 281 281 283 286 287 288 289 290 291 291 293 294 295 295 294 294 292 290 289 291 292 291 290 289 288 289 290 288
275 274 275 273 272 272 274 275 278 279 279 279 278 279 281 282 282 282 284 285 287 288 290 291 291 291 292 292 293 294 293 292 290 289 289 291 290 289 289 289 289 289 288
275 274 275 275 274 275 276 277 277 279 279 279 279 278 280 282 283 283 284 285 286 287 288 290 291 290 290 290 293 294 294 293 290 289 289 290 288 289 287 288 289 288 287
275 274 275 275 277 276 277 278 277 277 278 277 276 277 280 283 284 285 285 286 287 287 288 288 289 289 289 288 291 293 293 292 291 290 290 290 289 286 285 286 288 289 290
275 276 277 279 280 279 277 278 277 277 277 275 275 276 278 281 284 286 286 287 287 287 287 287 288 288 286 286 288 291 292 292 292 292 291 290 289 284 286 286 288 290 289
275 277 279 281 282 281 280 278 278 277 276 275 276 277 278 281 283 285 286 287 286 286 287 287 288 288 287 286 287 287 290 291 290 290 289 289 288 287 287 287 288 288 286
275 277 280 281 281 280 280 278 278 278 278 277 276 277 280 281 282 283 285 286 286 287 288 289 289 289 288 287 287 287 290 291 291 290 288 289 290 289 287 285 286 286 284
277 279 281 280 280 279 278 278 277 278 278 277 276 278 281 281 282 284 285 286 286 286 287 289 290 289 288 287 287 288 289 290 291 290 289 289 288 287 285 284 284 284 283
278 281 281 280 280 279 278 279 279 279 279 278 277 280 282 281 282 283 284 285 285 286 287 289 290 290 289 287 287 288 289 290 290 291 291 289 287 286 286 286 283 282 280
277 279 281 280 280 280 280 280 279 279 279 279 279 282 284 284 283 284 285 286 285 286 287 288 289 289 290 289 289 289 289 290 289 289 289 288 286 285 285 285 282 279 278
277 278 279 278 278 279 278 279 278 277 279 280 281 283 284 283 283 284 285 286 286 286 286 288 288 288 288 288 288 289 289 288 289 288 287 286 286 284 284 284 282 278 276
276 279 281 279 279 279 278 279 278 279 280 281 282 283 283 282 283 284 284 285 285 286 287 288 288 288 288 287 288 289 288 287 287 287 286 286 286 284 284 283 281 279 277
278 278 277 278 279 279 280 280 280 281 280 281 282 283 284 284 284 284 284 284 284 285 287 288 288 288 288 288 288 287 287 286 287 287 287 286 285 283 283 281 280 280 279
278 279 279 279 280 280 280 281 282 283 283 281 282 283 283 284 284 284 284 284 284 284 285 286 286 287 287 287 287 287 286 286 288 288 288 286 284 283 282 280 281 280 280
Height
5845 5844 5844 5844 5844 5844 5843 5843 5843 5842 5842 5841 5841 5840 5839 5838 5837 5836 5835 5834 5833 5832 5832 5831 5830 5829 5828 5826 5825 5824 5823 5821 5820 5818 5817 5816 5815 5815 5814 5813 5812 5812 5811
5842 5842 5842 5842 5841 5841 5841 5841 5841 5840 5839 5839 5838 5837 5836 5835 5834 5833 5831 5830 5830 5829 5828 5827 5826 5825 5824 5822 5821 5820 5818 5817 5815 5814 5813 5812 5812 5810 5809 5808 5808 5807 5807
5839 5839 5839 5839 5839 5838 5838 5838 5837 5837 5836 5835 5835 5834 5833 5832 5830 5829 5828 5827 5826 5825 5824 5823 5822 5821 5819 5818 5817 5815 5814 5812 5811 5810 5809 5808 5806 5806 5805 5803 5803 5802 5801
5835 5835 5836 5836 5835 5835 5835 5834 5834 5834 5833 5832 5831 5830 5829 5828 5826 5825 5824 5823 5822 5821 5820 5819 5817 5816 5815 5814 5812 5811 5809 5808 5806 5805 5804 5803 5801 5800 5799 5798 5797 5796 5796
5832 5832 5832 5832 5832 5831 5831 5831 5830 5830 5829 5828 5827 5826 5825 5824 5822 5821 5820 5819 5818 5817 5815 5814 5813 5811 5810 5809 5807 5806 5804 5803 5801 5800 5798 5797 5796 5795 5794 5793 5792 5791 5790
5828 5828 5828 5828 5828 5828 5827 5827 5826 5826 5825 5824 5823 5822 5821 5820 5818 5817 5816 5815 5813 5812 5811 5810 5808 5807 5805 5804 5803 5801 5799 5798 5796 5795 5793 5792 5791 5789 5788 5788 5787 5785 5784
5823 5824 5824 5824 5824 5823 5823 5823 5822 5822 5821 5820 5819 5817 5816 5815 5813 5812 5811 5810 5809 5808 5806 5805 5803 5802 5801 5799 5798 5796 5794 5793 5791 5789 5788 5786 5785 5784 5783 5782 5781 5779 5778
5819 5819 5819 5819 5819 5819 5818 5818 5817 5817 5816 5815 5814 5813 5811 5810 5809 5808 5807 5806 5804 5803 5802 5800 5799 5797 5795 5794 5792 5791 5789 5787 5786 5784 5783 5781 5780 5778 5777 5776 5774 5773 5772
5813 5814 5814 5814 5814 5814 5814 5813 5813 5812 5811 5810 5809 5808 5806 5806 5804 5803 5802 5801 5799 5798 5797 5795 5794 5792 5791 5789 5787 5785 5783 5782 5780 5778 5777 5775 5774 5772 5771 5769 5768 5767 5765
5808 5808 5808 5808 5808 5808 5808 5808 5807 5806 5806 5805 5804 5803 5802 5801 5800 5798 5797 5796 5795 5793 5792 5790 5789 5787 5785 5784 5782 5780 5778 5776 5774 5773 5771 5769 5768 5766 5765 5763 5761 5760 5758
5802 5803 5803 5803 5803 5802 5802 5802 5801 5801 5800 5799 5798 5797 5797 5795 5794 5793 5792 5791 5789 5788 5786 5785 5783 5781 5779 5778 5776 5774 5772 5770 5768 5767 5765 5763 5762 5760 5758 5757 5755 5753 5752
5797 5797 5797 5797 5797 5797 5796 5796 5796 5795 5794 5793 5793 5792 5791 5790 5789 5788 5786 5785 5784 5782 5781 5779 5777 5776 5774 5772 5770 5768 5766 5764 5763 5761 5759 5757 5755 5754 5752 5750 5748 5747 5745
5791 5792 5792 5791 5791 5791 5791 5790 5790 5789 5788 5787 5787 5786 5785 5784 5783 5782 5780 5779 5778 5776 5775 5773 5772 5770 5768 5766 5764 5762 5760 5759 5757 5755 5753 5751 5749 5748 5746 5744 5742 5741 5739
5786 5786 5786 5786 5786 5786 5785 5785 5784 5783 5782 5781 5781 5780 5779 5778 5777 5776 5774 5773 5772 5770 5768 5767 5765 5764 5762 5760 5758 5757 5755 5752 5750 5749 5747 5745 5743 5742 5740 5738 5736 5734 5733
5781 5780 5780 5780 5780 5780 5779 5778 5777 5777 5776 5775 5774 5774 5773 5772 5771 5770 5768 5767 5765 5764 5762 5760 5759 5757 5755 5754 5752 5750 5748 5746 5744 5742 5741 5738 5737 5735 5734 5732 5730 5728 5726
5775 5775 5774 5774 5774 5773 5773 5772 5771 5770 5770 5769 5768 5767 5767 5766 5764 5763 5762 5760 5759 5757 5755 5754 5752 5750 5749 5747 5745 5744 5742 5740 5738 5736 5734 5732 5730 5728 5727 5725 5724 5722 5720
5769 5769 5769 5768 5768 5767 5766 5766 5765 5764 5763 5762 5762 5761 5760 5759 5758 5757 5755 5754 5752 5751 5749 5747 5745 5744 5742 5740 5738 5736 5735 5733 5731 5729 5727 5725 5723 5721 5720 5718 5717 5715 5713
5763 5763 5762 5762 5761 5760 5760 5759 5758 5757 5757 5756 5755 5754 5754 5753 5751 5750 5748 5747 5745 5744 5742 5740 5738 5737 5735 5733 5731 5729 5728 5726 5724 5722 5720 5718 5716 5714 5713 5711 5710 5709 5707
5757 5756 5756 5755 5754 5754 5753 5752 5752 5751 5750 5749 5748 5748 5747 5746 5744 5743 5742 5740 5739 5737 5735 5733 5731 5730 5728 5726 5724 5722 5720 5718 5716 5714 5713 5711 5709 5707 5706 5705 5704 5702 5701
5750 5750 5749 5748 5748 5747 5746 5746 5745 5744 5743 5742 5742 5740 5740 5739 5738 5736 5735 5733 5731 5730 5728 5726 5724 5722 5720 5718 5716 5714 5713 5711 5709 5707 5706 5704 5702 5701 5699 5698 5697 5696 5695
5744 5743 5742 5742 5741 5740 5740 5739 5738 5737 5737 5735 5734 5733 5732 5731 5730 5728 5727 5725 5723 5722 5720 5718 5716 5714 5712 5710 5709 5707 5705 5704 5702 5700 5699 5697 5696 5694 5693 5691 5691 5689 5688
5737 5736 5736 5735 5734 5733 5733 5732 5731 5730 5729 5728 5727 5726 5724 5723 5722 5720 5719 5717 5715 5714 5712 5710 5708 5706 5705 5703 5701 5700 5698 5696 5695 5693 5692 5690 5689 5687 5686 5685 5684 5683 5682
5730 5729 5728 5728 5727 5726 5726 5725 5724 5723 5722 5721 5720 5718 5717 5715 5714 5712 5710 5709 5707 5706 5704 5702 5700 5699 5697 5695 5694 5692 5691 5689 5687 5686 5684 5683 5681 5680 5678 5677 5676 5675 5675
5722 5722 5721 5721 5720 5719 5718 5717 5716 5715 5714 5713 5712 5711 5709 5707 5706 5704 5702 5701 5699 5698 5696 5695 5693 5691 5689 5688 5686 5685 5683 5681 5679 5678 5677 5675 5673 5672 5671 5670 5668 5668 5667
5715 5715 5714 5713 5713 5712 5711 5710 5709 5708 5707 5705 5704 5703 5701 5700 5698 5696 5695 5693 5692 5690 5689 5687 5685 5683 5682 5680 5678 5676 5675 5673 5671 5670 5669 5667 5665 5664 5662 5661 5660 5659 5659
5708 5707 5706 5706 5705 5705 5704 5703 5701 5700 5699 5698 5697 5695 5694 5692 5690 5688 5687 5685 5683 5682 5680 5678 5677 5675 5673 5671 5670 5668 5666 5664 5663 5662 5660 5658 5657 5655 5654 5653 5652 5651 5650